QPF
0.00 0.00 0.00 0.01 0.01 0.00 0.00 0.01 0.01 0.00 0.00 0.00 0.00 0.00 0.00 0.00 0.00 0.00 0.01 0.00 0.00 0.00 0.00 0.00 0.00 0.00 0.00 0.00 0.01 0.01 0.01 0.02 0.03 0.05 0.05 0.05 0.05 0.05 0.04 0.03 0.03 0.05 0.03 0.02
0.00 0.00 0.00 0.00 0.00 0.00 0.00 0.00 0.00 0.01 0.00 0.00 0.00 0.00 0.00 0.00 0.00 0.00 0.00 0.00 0.00 0.00 0.00 0.00 0.00 0.00 0.00 0.00 0.01 0.01 0.02 0.02 0.02 0.04 0.04 0.04 0.04 0.04 0.03 0.02 0.03 0.04 0.03 0.02
0.00 0.00 0.00 0.00 0.00 0.00 0.00 0.00 0.00 0.00 0.00 0.00 0.01 0.02 0.00 0.00 0.00 0.00 0.00 0.00 0.00 0.00 0.00 0.00 0.00 0.00 0.00 0.01 0.01 0.02 0.02 0.03 0.02 0.03 0.04 0.04 0.03 0.03 0.04 0.03 0.03 0.03 0.04 0.04
0.00 0.00 0.00 0.00 0.00 0.00 0.00 0.00 0.00 0.00 0.00 0.00 0.01 0.03 0.01 0.00 0.00 0.00 0.00 0.00 0.00 0.00 0.00 0.00 0.00 0.00 0.00 0.00 0.01 0.02 0.02 0.03 0.02 0.03 0.04 0.03 0.03 0.04 0.03 0.03 0.02 0.02 0.02 0.02
0.00 0.00 0.00 0.01 0.00 0.00 0.00 0.00 0.00 0.00 0.00 0.00 0.00 0.01 0.01 0.00 0.01 0.00 0.00 0.00 0.00 0.00 0.00 0.00 0.00 0.00 0.00 0.00 0.00 0.01 0.02 0.02 0.03 0.03 0.03 0.03 0.03 0.03 0.02 0.02 0.03 0.02 0.02 0.01
0.00 0.00 0.00 0.01 0.00 0.00 0.00 0.00 0.00 0.00 0.00 0.00 0.00 0.00 0.00 0.00 0.00 0.00 0.00 0.00 0.00 0.00 0.00 0.00 0.00 0.00 0.00 0.00 0.00 0.01 0.01 0.01 0.02 0.02 0.02 0.02 0.03 0.03 0.03 0.04 0.04 0.04 0.02 0.02
0.00 0.00 0.00 0.00 0.00 0.00 0.00 0.00 0.00 0.00 0.00 0.00 0.00 0.00 0.00 0.00 0.01 0.00 0.00 0.00 0.00 0.00 0.00 0.00 0.00 0.00 0.00 0.00 0.01 0.01 0.02 0.02 0.01 0.01 0.01 0.01 0.02 0.02 0.02 0.03 0.03 0.02 0.02 0.02
0.00 0.00 0.00 0.00 0.00 0.00 0.00 0.00 0.01 0.01 0.01 0.01 0.00 0.00 0.00 0.00 0.00 0.00 0.00 0.00 0.00 0.00 0.00 0.00 0.00 0.00 0.00 0.00 0.01 0.02 0.03 0.02 0.01 0.01 0.01 0.01 0.01 0.02 0.02 0.03 0.02 0.02 0.02 0.03
0.00 0.00 0.00 0.00 0.00 0.00 0.00 0.00 0.00 0.01 0.01 0.00 0.00 0.00 0.00 0.00 0.00 0.00 0.00 0.00 0.00 0.00 0.00 0.00 0.00 0.00 0.00 0.00 0.01 0.01 0.02 0.01 0.01 0.01 0.01 0.02 0.03 0.02 0.02 0.03 0.03 0.02 0.02 0.02
0.00 0.00 0.00 0.00 0.00 0.00 0.00 0.01 0.00 0.00 0.01 0.01 0.01 0.00 0.00 0.00 0.00 0.00 0.00 0.00 0.00 0.00 0.00 0.00 0.00 0.00 0.00 0.00 0.00 0.00 0.01 0.02 0.02 0.01 0.01 0.01 0.02 0.02 0.02 0.03 0.03 0.03 0.03 0.02
0.00 0.00 0.00 0.00 0.00 0.00 0.00 0.00 0.00 0.00 0.00 0.01 0.02 0.02 0.00 0.00 0.00 0.00 0.00 0.00 0.00 0.00 0.00 0.00 0.00 0.00 0.00 0.00 0.00 0.00 0.01 0.01 0.01 0.01 0.01 0.01 0.02 0.02 0.03 0.03 0.03 0.02 0.02 0.02
0.01 0.00 0.00 0.00 0.00 0.00 0.00 0.00 0.00 0.00 0.00 0.00 0.01 0.01 0.00 0.01 0.02 0.00 0.00 0.00 0.00 0.00 0.00 0.00 0.00 0.00 0.00 0.00 0.00 0.00 0.00 0.00 0.00 0.00 0.01 0.02 0.02 0.02 0.02 0.02 0.02 0.01 0.01 0.02
0.00 0.01 0.00 0.00 0.00 0.00 0.00 0.00 0.00 0.00 0.00 0.00 0.00 0.00 0.00 0.00 0.01 0.00 0.00 0.00 0.00 0.00 0.00 0.00 0.00 0.00 0.00 0.01 0.01 0.00 0.00 0.01 0.01 0.01 0.01 0.01 0.01 0.01 0.01 0.01 0.01 0.01 0.01 0.02
0.00 0.00 0.00 0.00 0.00 0.00 0.00 0.00 0.00 0.00 0.00 0.00 0.00 0.00 0.00 0.00 0.00 0.00 0.01 0.00 0.00 0.00 0.00 0.00 0.00 0.01 0.01 0.01 0.01 0.01 0.01 0.01 0.01 0.01 0.02 0.03 0.02 0.01 0.01 0.02 0.02 0.01 0.01 0.02
0.01 0.00 0.00 0.00 0.00 0.00 0.00 0.00 0.00 0.00 0.00 0.00 0.00 0.00 0.00 0.00 0.00 0.00 0.01 0.00 0.00 0.00 0.00 0.00 0.01 0.01 0.01 0.01 0.02 0.02 0.02 0.02 0.01 0.01 0.02 0.02 0.02 0.01 0.02 0.02 0.02 0.01 0.00 0.01
0.01 0.00 0.00 0.00 0.00 0.00 0.00 0.00 0.00 0.00 0.00 0.00 0.00 0.00 0.00 0.00 0.00 0.00 0.00 0.00 0.00 0.00 0.00 0.00 0.00 0.00 0.01 0.01 0.01 0.02 0.03 0.02 0.02 0.02 0.01 0.01 0.01 0.01 0.02 0.02 0.02 0.02 0.01 0.01
0.01 0.00 0.00 0.00 0.00 0.00 0.00 0.00 0.00 0.00 0.00 0.00 0.00 0.00 0.00 0.00 0.00 0.00 0.01 0.00 0.00 0.00 0.00 0.00 0.00 0.00 0.00 0.01 0.01 0.03 0.03 0.03 0.03 0.02 0.02 0.02 0.02 0.02 0.02 0.02 0.02 0.03 0.03 0.02
0.01 0.00 0.01 0.00 0.01 0.01 0.00 0.00 0.00 0.00 0.00 0.00 0.00 0.00 0.00 0.00 0.00 0.00 0.00 0.00 0.00 0.00 0.00 0.00 0.00 0.00 0.00 0.00 0.01 0.02 0.02 0.03 0.03 0.04 0.03 0.03 0.03 0.03 0.03 0.02 0.02 0.02 0.02 0.03
0.00 0.00 0.01 0.01 0.01 0.01 0.00 0.00 0.00 0.00 0.00 0.00 0.00 0.00 0.00 0.00 0.00 0.00 0.00 0.00 0.00 0.00 0.00 0.00 0.00 0.01 0.01 0.01 0.02 0.02 0.02 0.02 0.03 0.02 0.02 0.02 0.02 0.02 0.03 0.03 0.03 0.02 0.02 0.02
0.00 0.00 0.01 0.01 0.01 0.01 0.00 0.00 0.00 0.00 0.00 0.00 0.00 0.00 0.00 0.00 0.01 0.01 0.01 0.00 0.00 0.00 0.01 0.01 0.01 0.02 0.01 0.02 0.02 0.02 0.02 0.03 0.03 0.03 0.02 0.02 0.03 0.03 0.03 0.04 0.04 0.03 0.03 0.03
0.01 0.01 0.01 0.01 0.01 0.01 0.00 0.00 0.00 0.00 0.01 0.00 0.00 0.01 0.00 0.01 0.01 0.02 0.01 0.01 0.00 0.01 0.01 0.01 0.02 0.03 0.03 0.02 0.02 0.02 0.02 0.03 0.03 0.02 0.03 0.02 0.02 0.03 0.03 0.03 0.03 0.04 0.05 0.05
0.02 0.02 0.02 0.02 0.02 0.02 0.01 0.00 0.00 0.00 0.00 0.00 0.00 0.01 0.01 0.01 0.01 0.01 0.00 0.00 0.00 0.01 0.03 0.02 0.03 0.04 0.04 0.04 0.03 0.03 0.03 0.03 0.03 0.04 0.02 0.02 0.02 0.02 0.03 0.04 0.04 0.05 0.06 0.05
0.02 0.02 0.02 0.02 0.02 0.01 0.00 0.00 0.00 0.00 0.00 0.00 0.00 0.01 0.01 0.01 0.01 0.00 0.00 0.00 0.00 0.00 0.01 0.02 0.04 0.05 0.04 0.04 0.03 0.03 0.03 0.03 0.03 0.03 0.02 0.01 0.01 0.02 0.03 0.04 0.05 0.05 0.05 0.05
0.02 0.01 0.02 0.02 0.01 0.01 0.01 0.01 0.00 0.00 0.00 0.01 0.01 0.01 0.01 0.01 0.01 0.01 0.01 0.01 0.01 0.01 0.01 0.02 0.04 0.04 0.04 0.03 0.03 0.03 0.03 0.03 0.03 0.03 0.04 0.03 0.02 0.01 0.01 0.02 0.03 0.04 0.04 0.04
0.02 0.02 0.02 0.03 0.02 0.01 0.01 0.01 0.01 0.01 0.01 0.01 0.01 0.01 0.01 0.01 0.01 0.01 0.01 0.02 0.02 0.02 0.02 0.03 0.03 0.04 0.04 0.03 0.02 0.02 0.02 0.02 0.03 0.05 0.04 0.03 0.02 0.02 0.02 0.01 0.02 0.02 0.02 0.03
0.04 0.03 0.04 0.04 0.03 0.03 0.02 0.01 0.01 0.01 0.01 0.01 0.02 0.01 0.01 0.01 0.02 0.02 0.02 0.02 0.03 0.03 0.03 0.04 0.04 0.04 0.04 0.04 0.03 0.02 0.02 0.02 0.02 0.03 0.02 0.01 0.01 0.02 0.03 0.03 0.03 0.03 0.02 0.03
MSLP
1003.03 1003.61 1004.11 1004.51 1004.84 1005.10 1005.33 1005.54 1005.75 1005.96 1006.15 1006.32 1006.45 1006.54 1006.61 1006.68 1006.76 1006.89 1007.07 1007.32 1007.64 1008.00 1008.39 1008.80 1009.19 1009.57 1009.93 1010.27 1010.60 1010.91 1011.21 1011.49 1011.74 1011.98 1012.18 1012.36 1012.52 1012.66 1012.79 1012.92 1013.05 1013.18 1013.32 1013.47
1003.96 1004.34 1004.63 1004.83 1004.99 1005.13 1005.30 1005.52 1005.76 1006.02 1006.24 1006.40 1006.48 1006.46 1006.38 1006.25 1006.14 1006.10 1006.16 1006.34 1006.64 1007.05 1007.52 1008.03 1008.53 1009.01 1009.46 1009.86 1010.24 1010.60 1010.94 1011.29 1011.62 1011.93 1012.22 1012.46 1012.65 1012.80 1012.90 1012.97 1013.02 1013.07 1013.14 1013.24
1004.73 1004.93 1005.03 1005.07 1005.10 1005.18 1005.35 1005.61 1005.92 1006.24 1006.50 1006.64 1006.64 1006.49 1006.21 1005.86 1005.53 1005.28 1005.18 1005.26 1005.52 1005.95 1006.49 1007.09 1007.70 1008.28 1008.81 1009.29 1009.72 1010.14 1010.55 1010.96 1011.38 1011.78 1012.15 1012.46 1012.70 1012.86 1012.94 1012.96 1012.96 1012.94 1012.95 1013.01
1005.27 1005.33 1005.30 1005.23 1005.22 1005.31 1005.52 1005.86 1006.27 1006.67 1006.97 1007.09 1007.00 1006.68 1006.19 1005.60 1005.01 1004.54 1004.25 1004.21 1004.41 1004.83 1005.41 1006.08 1006.77 1007.43 1008.03 1008.57 1009.07 1009.54 1010.01 1010.50 1011.00 1011.49 1011.94 1012.32 1012.62 1012.81 1012.90 1012.90 1012.86 1012.81 1012.77 1012.79
1005.56 1005.53 1005.42 1005.33 1005.33 1005.49 1005.81 1006.28 1006.81 1007.29 1007.63 1007.73 1007.54 1007.06 1006.36 1005.52 1004.69 1003.98 1003.50 1003.31 1003.43 1003.80 1004.39 1005.09 1005.83 1006.53 1007.19 1007.77 1008.31 1008.83 1009.36 1009.91 1010.48 1011.06 1011.59 1012.06 1012.42 1012.65 1012.76 1012.77 1012.72 1012.65 1012.60 1012.60
1005.61 1005.53 1005.41 1005.34 1005.42 1005.68 1006.14 1006.75 1007.41 1008.00 1008.38 1008.46 1008.19 1007.58 1006.69 1005.64 1004.59 1003.68 1003.02 1002.68 1002.69 1003.00 1003.55 1004.24 1004.98 1005.70 1006.37 1006.97 1007.53 1008.08 1008.64 1009.24 1009.87 1010.52 1011.13 1011.66 1012.09 1012.38 1012.53 1012.57 1012.53 1012.46 1012.40 1012.40
1005.45 1005.35 1005.25 1005.25 1005.42 1005.82 1006.42 1007.17 1007.96 1008.63 1009.06 1009.14 1008.81 1008.11 1007.09 1005.90 1004.69 1003.63 1002.83 1002.37 1002.28 1002.51 1002.99 1003.63 1004.33 1005.03 1005.67 1006.25 1006.80 1007.35 1007.93 1008.56 1009.23 1009.92 1010.59 1011.18 1011.67 1012.01 1012.21 1012.28 1012.27 1012.22 1012.18 1012.18
1005.15 1005.04 1004.97 1005.04 1005.32 1005.83 1006.55 1007.42 1008.29 1009.03 1009.50 1009.59 1009.26 1008.52 1007.45 1006.20 1004.93 1003.79 1002.91 1002.38 1002.20 1002.35 1002.76 1003.32 1003.95 1004.57 1005.16 1005.70 1006.21 1006.74 1007.31 1007.94 1008.62 1009.33 1010.03 1010.67 1011.20 1011.58 1011.82 1011.93 1011.96 1011.93 1011.91 1011.92
1004.80 1004.68 1004.65 1004.78 1005.12 1005.70 1006.49 1007.41 1008.33 1009.09 1009.58 1009.69 1009.39 1008.68 1007.65 1006.43 1005.19 1004.07 1003.20 1002.64 1002.42 1002.51 1002.83 1003.30 1003.84 1004.38 1004.88 1005.36 1005.82 1006.30 1006.84 1007.45 1008.13 1008.84 1009.54 1010.19 1010.74 1011.15 1011.41 1011.56 1011.61 1011.61 1011.61 1011.64
1004.49 1004.38 1004.37 1004.52 1004.89 1005.48 1006.27 1007.16 1008.05 1008.79 1009.27 1009.40 1009.14 1008.51 1007.59 1006.50 1005.38 1004.37 1003.57 1003.06 1002.84 1002.89 1003.15 1003.53 1003.98 1004.42 1004.84 1005.25 1005.65 1006.09 1006.59 1007.16 1007.81 1008.50 1009.18 1009.81 1010.35 1010.76 1011.04 1011.19 1011.27 1011.29 1011.31 1011.35
1004.34 1004.23 1004.23 1004.38 1004.73 1005.27 1005.96 1006.75 1007.53 1008.18 1008.60 1008.73 1008.52 1008.00 1007.23 1006.33 1005.40 1004.57 1003.92 1003.50 1003.33 1003.38 1003.59 1003.91 1004.28 1004.64 1005.00 1005.34 1005.69 1006.09 1006.55 1007.09 1007.70 1008.34 1008.98 1009.58 1010.08 1010.47 1010.74 1010.90 1010.98 1011.02 1011.05 1011.10
1004.40 1004.32 1004.33 1004.46 1004.73 1005.16 1005.70 1006.31 1006.91 1007.40 1007.71 1007.79 1007.61 1007.20 1006.61 1005.91 1005.21 1004.59 1004.12 1003.83 1003.74 1003.82 1004.03 1004.31 1004.63 1004.94 1005.25 1005.56 1005.89 1006.26 1006.70 1007.21 1007.78 1008.37 1008.96 1009.49 1009.95 1010.30 1010.55 1010.70 1010.78 1010.83 1010.88 1010.94
1004.70 1004.66 1004.69 1004.78 1004.97 1005.24 1005.59 1005.96 1006.32 1006.59 1006.74 1006.73 1006.55 1006.22 1005.77 1005.27 1004.79 1004.38 1004.10 1003.97 1003.98 1004.11 1004.33 1004.61 1004.90 1005.20 1005.50 1005.81 1006.14 1006.52 1006.96 1007.45 1007.98 1008.52 1009.05 1009.53 1009.93 1010.24 1010.46 1010.60 1010.69 1010.75 1010.81 1010.88
1005.19 1005.23 1005.27 1005.34 1005.42 1005.53 1005.65 1005.76 1005.84 1005.87 1005.82 1005.68 1005.45 1005.14 1004.80 1004.46 1004.17 1003.95 1003.84 1003.85 1003.96 1004.15 1004.41 1004.70 1005.01 1005.33 1005.65 1005.99 1006.36 1006.77 1007.22 1007.70 1008.21 1008.72 1009.19 1009.62 1009.97 1010.24 1010.43 1010.57 1010.67 1010.75 1010.84 1010.93
1005.80 1005.90 1005.97 1006.00 1005.99 1005.93 1005.83 1005.68 1005.49 1005.26 1004.99 1004.69 1004.38 1004.07 1003.78 1003.55 1003.39 1003.32 1003.35 1003.47 1003.66 1003.92 1004.22 1004.55 1004.90 1005.26 1005.63 1006.02 1006.45 1006.90 1007.38 1007.88 1008.37 1008.85 1009.29 1009.67 1009.98 1010.23 1010.42 1010.57 1010.69 1010.81 1010.92 1011.04
1006.39 1006.54 1006.63 1006.63 1006.53 1006.32 1006.01 1005.63 1005.19 1004.72 1004.25 1003.79 1003.38 1003.03 1002.76 1002.59 1002.52 1002.55 1002.67 1002.87 1003.13 1003.44 1003.79 1004.16 1004.55 1004.96 1005.39 1005.85 1006.34 1006.84 1007.36 1007.87 1008.37 1008.84 1009.25 1009.60 1009.90 1010.14 1010.34 1010.52 1010.68 1010.84 1011.01 1011.17
1006.85 1007.01 1007.08 1007.03 1006.84 1006.50 1006.04 1005.47 1004.83 1004.17 1003.53 1002.94 1002.44 1002.05 1001.77 1001.63 1001.61 1001.70 1001.87 1002.12 1002.43 1002.78 1003.16 1003.57 1004.01 1004.47 1004.96 1005.48 1006.02 1006.57 1007.12 1007.65 1008.16 1008.61 1009.02 1009.37 1009.67 1009.93 1010.16 1010.38 1010.60 1010.81 1011.03 1011.24
1007.09 1007.19 1007.20 1007.07 1006.79 1006.34 1005.76 1005.06 1004.29 1003.51 1002.76 1002.09 1001.54 1001.12 1000.84 1000.72 1000.72 1000.84 1001.06 1001.34 1001.67 1002.05 1002.45 1002.89 1003.36 1003.85 1004.38 1004.94 1005.52 1006.10 1006.67 1007.22 1007.73 1008.18 1008.59 1008.95 1009.27 1009.56 1009.84 1010.12 1010.40 1010.67 1010.94 1011.20
1007.07 1007.05 1006.94 1006.70 1006.31 1005.78 1005.11 1004.34 1003.51 1002.68 1001.90 1001.21 1000.65 1000.24 999.99 999.89 999.93 1000.08 1000.32 1000.62 1000.97 1001.36 1001.78 1002.22 1002.70 1003.22 1003.76 1004.33 1004.92 1005.51 1006.09 1006.63 1007.14 1007.60 1008.02 1008.40 1008.75 1009.09 1009.42 1009.75 1010.09 1010.42 1010.74 1011.03
1006.83 1006.63 1006.35 1005.97 1005.47 1004.86 1004.14 1003.35 1002.52 1001.71 1000.97 1000.32 999.81 999.45 999.25 999.20 999.28 999.47 999.73 1000.06 1000.42 1000.82 1001.24 1001.68 1002.16 1002.66 1003.20 1003.75 1004.33 1004.90 1005.46 1005.99 1006.49 1006.96 1007.39 1007.79 1008.18 1008.56 1008.94 1009.32 1009.70 1010.08 1010.43 1010.74
1006.47 1006.05 1005.57 1005.04 1004.43 1003.75 1003.01 1002.23 1001.45 1000.71 1000.04 999.49 999.07 998.80 998.68 998.70 998.83 999.06 999.37 999.71 1000.09 1000.49 1000.91 1001.35 1001.80 1002.28 1002.78 1003.30 1003.83 1004.37 1004.90 1005.41 1005.90 1006.36 1006.81 1007.23 1007.65 1008.06 1008.48 1008.89 1009.30 1009.68 1010.04 1010.36
1006.08 1005.44 1004.78 1004.09 1003.38 1002.65 1001.90 1001.16 1000.46 999.81 999.26 998.83 998.52 998.35 998.32 998.42 998.62 998.91 999.25 999.62 1000.02 1000.42 1000.83 1001.25 1001.67 1002.11 1002.57 1003.03 1003.51 1004.00 1004.49 1004.97 1005.44 1005.90 1006.34 1006.78 1007.22 1007.65 1008.08 1008.50 1008.90 1009.28 1009.62 1009.92
1005.75 1004.93 1004.11 1003.31 1002.52 1001.76 1001.03 1000.34 999.73 999.19 998.75 998.43 998.24 998.17 998.23 998.40 998.66 998.99 999.37 999.77 1000.18 1000.59 1000.99 1001.38 1001.78 1002.17 1002.57 1002.98 1003.40 1003.83 1004.27 1004.71 1005.16 1005.60 1006.04 1006.48 1006.92 1007.35 1007.77 1008.17 1008.54 1008.88 1009.19 1009.46
1005.50 1004.57 1003.67 1002.80 1001.98 1001.22 1000.52 999.90 999.37 998.93 998.59 998.37 998.26 998.28 998.40 998.62 998.93 999.29 999.69 1000.11 1000.53 1000.94 1001.33 1001.71 1002.07 1002.42 1002.77 1003.12 1003.48 1003.85 1004.23 1004.63 1005.04 1005.46 1005.89 1006.31 1006.73 1007.13 1007.52 1007.88 1008.21 1008.50 1008.76 1008.99
1005.30 1004.36 1003.45 1002.58 1001.78 1001.05 1000.42 999.87 999.41 999.05 998.79 998.64 998.59 998.65 998.80 999.05 999.36 999.74 1000.15 1000.57 1000.99 1001.40 1001.78 1002.14 1002.47 1002.78 1003.08 1003.37 1003.67 1003.99 1004.32 1004.67 1005.04 1005.42 1005.81 1006.20 1006.59 1006.95 1007.29 1007.60 1007.87 1008.11 1008.32 1008.52
1005.08 1004.20 1003.35 1002.55 1001.83 1001.18 1000.62 1000.16 999.77 999.48 999.27 999.15 999.13 999.19 999.35 999.59 999.89 1000.26 1000.66 1001.07 1001.49 1001.88 1002.25 1002.59 1002.89 1003.16 1003.41 1003.65 1003.89 1004.15 1004.42 1004.72 1005.04 1005.38 1005.73 1006.07 1006.41 1006.72 1007.01 1007.26 1007.48 1007.68 1007.86 1008.04
Thickness
5865 5851 5843 5855 5866 5867 5864 5858 5852 5863 5878 5869 5860 5856 5861 5866 5861 5853 5847 5844 5839 5836 5837 5835 5832 5827 5821 5814 5808 5803 5798 5795 5793 5789 5785 5782 5780 5781 5779 5778 5775 5773 5772 5771
5849 5843 5861 5874 5875 5869 5862 5854 5856 5865 5878 5871 5860 5859 5868 5868 5863 5861 5854 5848 5845 5841 5837 5834 5832 5828 5822 5815 5810 5805 5801 5798 5795 5791 5789 5786 5784 5783 5782 5780 5777 5775 5773 5772
5840 5856 5874 5868 5862 5857 5857 5856 5857 5856 5868 5872 5860 5848 5859 5868 5871 5868 5863 5858 5854 5847 5840 5835 5832 5829 5825 5818 5813 5809 5804 5801 5798 5795 5792 5789 5786 5783 5780 5778 5777 5777 5775 5774
5849 5864 5865 5859 5857 5858 5844 5866 5865 5858 5849 5844 5852 5823 5841 5857 5858 5862 5861 5860 5857 5853 5848 5841 5835 5831 5827 5823 5819 5814 5808 5804 5800 5797 5793 5787 5782 5778 5779 5779 5778 5778 5777 5775
5843 5856 5854 5848 5857 5861 5856 5871 5863 5858 5850 5842 5849 5834 5837 5857 5847 5855 5861 5861 5860 5858 5853 5846 5841 5835 5833 5829 5823 5817 5811 5806 5802 5799 5795 5789 5785 5783 5782 5781 5779 5777 5777 5776
5850 5865 5863 5858 5865 5866 5865 5861 5856 5854 5844 5819 5838 5832 5827 5849 5853 5857 5863 5864 5863 5861 5857 5851 5846 5840 5835 5832 5826 5820 5812 5806 5803 5799 5795 5790 5786 5784 5781 5778 5777 5777 5777 5776
5829 5847 5860 5863 5847 5854 5853 5835 5813 5807 5807 5813 5846 5838 5838 5860 5868 5865 5863 5863 5866 5863 5858 5850 5844 5839 5835 5831 5827 5821 5813 5807 5804 5800 5795 5791 5789 5786 5782 5779 5778 5776 5775 5774
5812 5818 5846 5854 5846 5840 5843 5837 5807 5792 5798 5814 5834 5831 5848 5871 5875 5874 5869 5867 5865 5861 5858 5852 5846 5841 5836 5832 5827 5821 5813 5808 5805 5800 5796 5792 5790 5787 5785 5782 5780 5778 5777 5776
5814 5819 5851 5857 5860 5852 5836 5836 5847 5827 5821 5813 5828 5841 5851 5868 5865 5866 5864 5863 5860 5857 5855 5852 5848 5843 5838 5833 5828 5822 5815 5809 5806 5802 5799 5795 5792 5789 5786 5784 5781 5779 5778 5778
5823 5811 5835 5849 5851 5850 5848 5844 5835 5820 5797 5794 5814 5826 5831 5842 5848 5854 5857 5857 5856 5855 5853 5850 5846 5842 5838 5835 5829 5824 5817 5811 5807 5803 5800 5797 5793 5790 5787 5784 5781 5779 5778 5777
5823 5806 5817 5830 5822 5825 5831 5830 5828 5823 5817 5799 5794 5810 5853 5848 5849 5851 5853 5857 5855 5852 5850 5848 5845 5842 5838 5834 5829 5823 5818 5812 5807 5804 5800 5797 5793 5790 5788 5784 5782 5779 5778 5776
5816 5807 5801 5817 5840 5847 5839 5832 5827 5804 5802 5811 5804 5815 5863 5858 5858 5856 5852 5853 5853 5851 5849 5846 5843 5839 5834 5830 5826 5821 5817 5812 5808 5804 5800 5797 5793 5790 5787 5783 5781 5780 5777 5775
5804 5793 5780 5791 5810 5825 5822 5828 5830 5826 5815 5806 5800 5814 5858 5857 5854 5855 5851 5849 5847 5845 5843 5840 5837 5834 5829 5826 5822 5819 5816 5812 5808 5803 5799 5793 5791 5788 5786 5783 5781 5779 5776 5774
5797 5784 5778 5778 5795 5809 5806 5815 5825 5819 5804 5803 5810 5819 5837 5843 5843 5845 5843 5844 5842 5839 5836 5833 5829 5827 5824 5822 5819 5816 5812 5810 5806 5801 5796 5790 5787 5786 5784 5782 5779 5777 5775 5772
5786 5773 5781 5792 5808 5813 5810 5811 5816 5814 5815 5808 5815 5822 5832 5837 5838 5839 5838 5838 5835 5831 5829 5826 5823 5820 5818 5816 5813 5811 5808 5806 5803 5797 5792 5789 5787 5784 5782 5779 5777 5774 5772 5770
5773 5764 5771 5776 5794 5801 5802 5811 5813 5813 5816 5817 5819 5820 5840 5842 5839 5831 5831 5829 5825 5824 5823 5821 5819 5816 5813 5811 5808 5806 5802 5801 5798 5794 5790 5788 5784 5781 5778 5776 5773 5771 5769 5767
5759 5754 5751 5756 5778 5783 5778 5801 5807 5809 5817 5816 5808 5818 5833 5828 5823 5821 5821 5822 5820 5819 5819 5816 5814 5812 5810 5808 5805 5800 5798 5796 5793 5790 5787 5784 5781 5777 5774 5773 5770 5767 5765 5762
5746 5743 5744 5748 5753 5740 5781 5817 5817 5811 5815 5822 5821 5824 5825 5823 5823 5824 5823 5818 5814 5814 5813 5812 5810 5808 5807 5805 5802 5799 5796 5792 5788 5786 5783 5780 5777 5773 5770 5768 5766 5763 5761 5758
5749 5738 5734 5736 5736 5749 5780 5801 5805 5797 5797 5815 5814 5816 5819 5821 5816 5811 5817 5816 5811 5810 5809 5808 5807 5805 5802 5800 5797 5793 5789 5786 5782 5780 5778 5776 5773 5769 5766 5763 5761 5759 5757 5754
5743 5739 5728 5729 5725 5729 5766 5795 5808 5796 5778 5803 5807 5805 5807 5805 5789 5792 5807 5808 5807 5805 5803 5802 5801 5800 5795 5794 5792 5787 5783 5779 5776 5776 5774 5772 5770 5766 5763 5760 5757 5755 5753 5750
5720 5719 5717 5720 5721 5739 5772 5789 5791 5760 5765 5792 5796 5798 5797 5792 5791 5796 5801 5799 5799 5797 5796 5795 5793 5789 5788 5788 5784 5779 5776 5774 5774 5773 5770 5767 5765 5763 5759 5756 5754 5751 5748 5745
5714 5712 5711 5714 5711 5725 5766 5770 5760 5760 5777 5783 5787 5788 5788 5788 5790 5791 5791 5789 5789 5787 5786 5786 5782 5780 5781 5780 5777 5773 5770 5771 5770 5768 5764 5762 5760 5759 5756 5751 5749 5746 5742 5738
5714 5718 5719 5718 5722 5742 5757 5756 5761 5767 5767 5771 5775 5778 5779 5778 5780 5781 5780 5779 5779 5778 5777 5777 5774 5771 5771 5772 5770 5765 5765 5766 5763 5760 5758 5756 5755 5753 5751 5747 5743 5740 5737 5734
5711 5721 5717 5714 5724 5736 5744 5750 5755 5758 5759 5764 5767 5768 5769 5768 5770 5771 5770 5769 5769 5770 5769 5768 5766 5762 5761 5763 5763 5761 5760 5759 5756 5752 5750 5749 5747 5745 5744 5740 5738 5735 5732 5729
5696 5702 5703 5705 5716 5723 5731 5735 5741 5746 5751 5754 5757 5759 5759 5758 5758 5759 5758 5758 5759 5760 5760 5759 5757 5754 5753 5754 5754 5754 5753 5751 5747 5744 5742 5741 5740 5739 5735 5732 5730 5729 5726 5724
5691 5690 5688 5692 5705 5707 5713 5725 5733 5733 5736 5741 5743 5744 5749 5749 5748 5749 5749 5750 5751 5751 5751 5749 5748 5746 5746 5745 5745 5745 5745 5744 5740 5736 5735 5734 5733 5731 5729 5725 5721 5718 5717 5714